This is the latest recevied weather packets stored in our database for station/object KI7MOQ. If no packets are shown the sender has not sent any weather packets the latest 10 day(s).
| Time | Temp. | Humidity | Pressure | Rain* | Wind** | Luminosity | Snow |
|---|---|---|---|---|---|---|---|
| 1778097579 | 16.11° C | 77% | 1023.5 hPa | 0 mm | - | 133 W/m² | - |
| 1778097276 | 16.11° C | 77% | 1023.4 hPa | 0 mm | - | 108 W/m² | - |
| 1778096972 | 15.56° C | 78% | 1023.6 hPa | 0 mm | - | 93 W/m² | - |
| 1778096670 | 15.56° C | 78% | 1023.5 hPa | 0 mm | - | 110 W/m² | - |
| 1778096367 | 15.56° C | 78% | 1023.7 hPa | 0 mm | - | 90 W/m² | - |
| 1778096064 | 15.56° C | 78% | 1023.8 hPa | 0 mm | - | 83 W/m² | - |
| 1778095760 | 15.56° C | 78% | 1023.7 hPa | 0 mm | - | 82 W/m² | - |
| 1778095457 | 15.56° C | 78% | 1023.8 hPa | 0 mm | - | 84 W/m² | - |
| 1778095155 | 15.56° C | 77% | 1023.8 hPa | 0 mm | - | 71 W/m² | - |
| 1778094851 | 15.56° C | 78% | 1023.7 hPa | 0 mm | - | 76 W/m² | - |
| 1778094548 | 16.11° C | 77% | 1023.6 hPa | 0 mm | - | 78 W/m² | - |
| 1778094244 | 15.56° C | 77% | 1023.6 hPa | 0 mm | - | 86 W/m² | - |
| 1778093941 | 15.56° C | 78% | 1023.6 hPa | 0 mm | - | 81 W/m² | - |
| 1778093638 | 15.56° C | 77% | 1023.6 hPa | 0 mm | - | 83 W/m² | - |
| 1778093335 | 15.56° C | 78% | 1023.5 hPa | 0 mm | - | 90 W/m² | - |
| 1778093032 | 15.56° C | 78% | 1023.6 hPa | 0 mm | - | 86 W/m² | - |
| 1778092730 | 15.56° C | 79% | 1023.5 hPa | 0 mm | - | 83 W/m² | - |
| 1778092424 | 15.56° C | 78% | 1023.8 hPa | 0 mm | - | 80 W/m² | - |
| 1778092122 | 15.56° C | 78% | 1023.6 hPa | 0 mm | - | 81 W/m² | - |
| 1778091819 | 15° C | 79% | 1023.4 hPa | 0 mm | - | 99 W/m² | - |
| 1778091517 | 15° C | 79% | 1023.5 hPa | 0 mm | - | 98 W/m² | - |
| 1778091215 | 15° C | 78% | 1023.6 hPa | 0 mm | - | 81 W/m² | - |
| 1778090911 | 15° C | 79% | 1023.5 hPa | 0 mm | - | 78 W/m² | - |
| 1778090607 | 15° C | 79% | 1023.7 hPa | 0 mm | - | 77 W/m² | - |
| 1778090303 | 15° C | 79% | 1023.5 hPa | 0 mm | - | 86 W/m² | - |
* Rain latest hour (hover to see other rain measurements)
** Current wind speed in m/s (hover to see current wind gust speed)